CRYOSAT 2 (36508 NORAD) Tracking and Keplerian Element Data

This shows tracking and keplerian element data for the satellite.

Feedback or suggestion? Click here.




ElementValue
Catalog36508
NameCRYOSAT 2
Epoch Orbit78577
Epoch Day34.85854406
Epoch Year2025
RAAN157.0105
Inclination92.0192
Eccentricity0.0001878
Argument of Perigee129.6418
Mean Anonmoly230.4955
Mean Motion14.51905373
Decay Rate4.87E-06
L11 36508U 10013A 25034.85854406 .00000487 00000+0 12021-3 0 9998
L22 36508 92.0192 157.0105 0001878 129.6418 230.4955 14.51905373785771



Live tracking and technical data element details for CRYOSAT 2 (NORAD 36508). CRYOSAT 2 can be tracked NOW for your location showing map with azimuth and elevation plus other details from your city location.







IsCatalogInMostPopularTable: catalog: 36508, numindb: 330
Update: records affected: 1



GetName: 36508 CRYOSAT 2

Hit Count: updated at: Fri, 16 May 2025 11:37:33 GMT